Location: NJAA Observatory
(40.6819°N, 74.8979°W)
Time: 18:02:34
(UTC-04:00)

Landsat 5 - Visible Passes

Search period start: 28 May 2016 00:00
Search period end: 07 June 2016 00:00
Orbit: 530 x 658 km, 98.0° (Epoch: 27 May)

Date Brightness Start Highest point End Pass type
(mag) Time Alt. Az. Time Alt. Az. Time Alt. Az.
28 May 4.5 00:40:51 42° NNW 00:40:51 42° NNW 00:43:35 10° NNW visible
29 May 4.6 00:50:14 39° NNW 00:50:14 39° NNW 00:52:55 10° NNW visible
29 May 5.8 23:22:59 12° ENE 23:23:11 12° ENE 23:24:45 10° NE visible
30 May 4.7 00:59:37 35° NW 00:59:37 35° NW 01:02:12 10° NNW visible
30 May 5.6 23:32:22 15° ENE 23:32:24 15° ENE 23:34:45 10° NNE visible
31 May 4.9 01:09:00 30° NW 01:09:00 30° NW 01:11:27 10° NNW visible
31 May 5.4 23:41:46 19° ENE 23:41:46 19° ENE 23:44:31 10° NNE visible
01 Jun 5.1 01:18:23 25° WNW 01:18:23 25° WNW 01:20:39 10° NNW visible
01 Jun 5.1 23:51:09 23° ENE 23:51:09 23° ENE 23:54:11 10° NNE visible
02 Jun 5.4 01:27:46 21° WNW 01:27:46 21° WNW 01:29:47 10° NW visible
03 Jun 4.8 00:00:32 29° ENE 00:00:32 29° ENE 00:03:45 10° N visible
03 Jun 5.6 01:37:10 17° WNW 01:37:10 17° WNW 01:38:50 10° NW visible
04 Jun 4.6 00:09:56 36° NE 00:09:56 36° NE 00:13:16 10° N visible
04 Jun 5.8 01:46:33 14° WNW 01:46:33 14° WNW 01:47:45 10° NW visible
05 Jun 4.3 00:19:19 44° NE 00:19:19 44° NE 00:22:44 10° N visible
05 Jun 6.0 01:55:57 11° WNW 01:55:57 11° WNW 01:56:28 10° WNW visible
06 Jun 4.1 00:28:43 52° NNE 00:28:43 52° NNE 00:32:10 10° N visible
